Regional Weather Roundup
Issued by NWS State College, PA

Home | Current Version | Previous Version | Text Only | Print | Product List | Glossary On
Versions: 1 2 3 4 5 6 7 8 9 10 11 12 13 14 15 16 17 18 19 20 21 22 23 24 25 26 27 28 29 30 31 32 33 34 35 36 37 38 39 40 41 42 43 44 45 46 47 48 49 50
000
ASUS41 KCTP 041010
RWRCTP

REGIONAL WEATHER ROUNDUP
NATIONAL WEATHER SERVICE STATE COLLEGE PA
600 AM EDT WED MAY 04 2016

Note: "fair" indicates few or no clouds below 12,000 feet with no
significant weather and/or obstructions to visibility.

* = STATION THAT DOES NOT REPORT PRECIPITATION /E.G. RAIN...SNOW...ETC/
    THUNDER OR FOG.

PAZ002>004-007>009-013>016-020>023-029>032-041100-
WESTERN PENNSYLVANIA

CITY           SKY/WX    TMP DP  RH WIND       PRES   REMARKS
ERIE           PTCLDY    41  38  89 S6        29.71F
MEADVILLE      PTCLDY    41  40  96 CALM      29.71F
FRANKLIN*      MOCLDY    36  32  87 E3        29.74S VSB 1/2
NEW CASTLE     CLOUDY    39  37  92 CALM      29.73F
BEAVER COUNTY  NOT AVBL
BUTLER*        CLOUDY    46  39  76 CALM      29.74S
PITTSBURGH INT MOCLDY    51  42  71 CALM      29.71F
PITTSBURGH     CLOUDY    50  44  80 CALM      29.72R
INDIANA*       CLOUDY    48  48 100 SW5       29.76S
LATROBE        CLOUDY    48  48 100 CALM      29.73F FOG
WASHINGTON CO* CLOUDY    48  45  87 CALM      29.73S
$$

PAZ004>006-010>012-017>019-024>028-033>037-041-042-045-046-049>053-041100-
CENTRAL PENNSYLVANIA

CITY           SKY/WX    TMP DP  RH WIND       PRES   REMARKS
BRADFORD       FOG       39  37  92 CALM      29.72F VSB 1/4
DUBOIS         CLOUDY    43  41  93 E3        29.71S FOG
CLEARFIELD     CLOUDY    43  41  93 CALM      29.73S
JOHNSTOWN      CLOUDY    47  41  80 SW6       29.71F
ALTOONA        MOCLDY    47  43  86 S3        29.73S
STATE COLLEGE    N/A     48  48 100 CALM      29.73S
WILLIAMSPORT   CLOUDY    52  48  86 CALM      29.73S
SELINSGROVE    CLOUDY    53  51  93 CALM      29.74S FOG
FT INDIANTOWN  CLOUDY    52  52 100 E3        29.75S
CAPITAL CITY   CLOUDY    54  50  86 SE7       29.74S
HARRISBURG     CLOUDY    53  50  89 SE6       29.74S
YORK           CLOUDY    52  50  93 E6        29.73F
$$

PAZ038>040-043-044-047-048-054-055-060>062-067>071-041100-
EASTERN PENNSYLVANIA

CITY           SKY/WX    TMP DP  RH WIND       PRES   REMARKS
SCRANTON       LGT RAIN  51  49  92 CALM      29.75R FOG
MOUNT POCONO   LGT RAIN  46  45  96 SE7       29.76R VSB 3/4
ALLENTOWN      LGT RAIN  51  48  89 E3        29.77F
QUAKERTOWN*    CLOUDY    48  48 100 E3        29.78S
READING        LGT RAIN  51  47  86 SE5       29.76S
LANCASTER      LGT RAIN  50  50 100 E7        29.74F
COATESVILLE    CLOUDY    48  48 100 MISG      29.76F
POTTSTOWN      LGT RAIN  49  49 100 CALM      29.79R
BLUE BELL      CLOUDY    46  46 100 E5        29.77S
DOYLESTOWN     LGT RAIN  47  47 100 VRB5      29.76F
WILLOW GROVE   NOT AVBL
NORTH PHILA    CLOUDY    51  48  89 E9        29.79F
PHILADELPHIA   CLOUDY    51  47  86 NE8       29.77F
$$



USA.gov is the U.S. government's official web portal to all federal, state and local government web resources and services.